Volver al catálogo

STARLINK-35379

ActivoComunicacionesVLEO
NORAD 66084·PAYLOAD·🇺🇸 United States

Lanzado Oct 19, 2025 desde Cape Canaveral Space Force Station

Loading…

Próximos Pases (próximas 24 horas)

TLE

ActualizadoSource: CelesTrak SupGP

Época: Sep 14, 2026, 15:57 UTC

1 66084C 25235AC  26257.66506944 -.00033670  00000+0 -99462-3 0  2573
2 66084  53.1589  86.9477 0001148  91.1353 215.1186 15.34413063    19

Sigue STARLINK-35379 en tiempo real con AllMySat

Download on the App Store